[Iaude] MPEC O71: 2024 OE [a=2.20,e=0.54,i=9.8,H=23.8]
    mpec at cfa.harvard.edu 
    mpec at cfa.harvard.edu
       
    Sun Jul 28 16:57:42 EDT 2024
    
    
  
M.P.E.C. 2024-O71                                 Issued 2024 July 28, 20:56 UT
     The Minor Planet Electronic Circulars contain information on unusual
         minor planets, routine data on comets and natural satellites,
         and occasional editorial announcements.  They are published
    on behalf of Division F of the International Astronomical Union by the
          Minor Planet Center, Smithsonian Astrophysical Observatory,
                          Cambridge, MA 02138, U.S.A.
			  
             Prepared using the Tamkin Foundation Computer Network
                              MPC at CFA.HARVARD.EDU
            URL https://www.minorplanetcenter.net/    ISSN 1523-6714
                                    2024 OE                                     
Observations:
     K24O00E* C2024 07 27.26073214 57 01.666+08 41 32.14         18.52oVEO071T08
     K24O00E  C2024 07 27.26734214 56 57.686+08 40 27.52         18.53oVEO071T08
     K24O00E  C2024 07 27.27103614 56 55.507+08 39 51.98         19.23oVEO071T08
     K24O00E  C2024 07 27.29068514 56 43.702+08 36 39.49         18.73oVEO071T08
     K24O00E KB2024 07 27.49121914 55 00.728+08 01 44.12         19.2 VZEO071Q06
     K24O00E KB2024 07 27.49496714 54 58.348+08 01 03.48         19.3 VZEO071Q06
     K24O00E KB2024 07 27.49871514 54 56.079+08 00 24.91         19.5 VZEO071Q06
     K24O00E KB2024 07 27.80943 14 52 02.75 +07 02 22.0          19.1 VZEO071M45
     K24O00E KB2024 07 27.81286 14 52 00.46 +07 01 41.7          19.3 VZEO071M45
     K24O00E KB2024 07 27.81629 14 51 58.20 +07 01 01.1          19.4 VZEO071M45
     K24O00E KC2024 07 27.82950814 51 51.87 +06 58 27.3          19.3 GXEO071595
     K24O00E KC2024 07 27.83612114 51 47.44 +06 57 08.9          18.9 GXEO071595
     K24O00E KC2024 07 27.84273614 51 42.97 +06 55 50.2          19.0 GXEO071595
     K24O00E KC2024 07 27.85740614 51 31.62 +06 52 39.0          18.8 GXEO071L18
     K24O00E KC2024 07 27.86385214 51 27.45 +06 51 20.4          19.3 GXEO071L18
     K24O00E KB2024 07 27.86743214 51 24.864+06 51 29.45         19.7 GXEO071L34
     K24O00E KC2024 07 27.87023214 51 23.40 +06 50 02.5          19.2 GXEO071L18
     K24O00E KB2024 07 27.89192 14 51 11.614+06 46 28.09         19.6 GXEO071J57
     K24O00E KB2024 07 27.89218214 51 08.179+06 46 28.81         18.4 GXEO071L34
     K24O00E KB2024 07 27.89587 14 51 08.909+06 45 40.00         18.8 GXEO071J57
     K24O00E KB2024 07 27.89971 14 51 06.245+06 44 53.02         18.6 GXEO071J57
     K24O00E KC2024 07 27.90235514 51 06.766+06 43 32.05         18.8 GVEO071J95
     K24O00E KC2024 07 27.90467514 51 05.208+06 43 03.76         18.7 GVEO071J95
     K24O00E KC2024 07 27.90928414 51 02.131+06 42 07.27         18.4 GVEO071J95
     K24O00E KB2024 07 27.91222614 50 57.39 +06 41 50.5          18.6 GVEO071204
     K24O00E KB2024 07 27.91896214 50 52.93 +06 40 27.3                VEO071204
     K24O00E KB2024 07 27.92604214 50 48.25 +06 39 00.2                VEO071204
     K24O00E |C2024 07 27.96795014 50 35.960+06 37 22.60         18.5 GVEO071807
     K24O00E |C2024 07 27.97126014 50 33.510+06 36 41.80         18.8 GVEO071807
     K24O00E |C2024 07 27.97476014 50 30.880+06 35 58.50         18.9 GVEO071807
     K24O00E |C2024 07 27.97802014 50 28.450+06 35 18.30         19.0 GVEO071807
     K24O00E KC2024 07 28.85011 14 39 29.93 +02 52 06.1          18.1 GXEO071G02
     K24O00E KC2024 07 28.85207 14 39 28.48 +02 51 58.0          18.4 GVEO071104
     K24O00E KC2024 07 28.85439 14 39 25.97 +02 50 51.5          18.6 GXEO071G02
     K24O00E KC2024 07 28.85594 14 39 24.74 +02 50 49.3          18.5 GVEO071104
     K24O00E KC2024 07 28.85905 14 39 21.52 +02 49 27.1          18.3 GXEO071G02
     K24O00E KC2024 07 28.85980 14 39 21.01 +02 49 40.5          18.5 GVEO071104
Observer details:
104 San Marcello Pistoiese.  Observers P. Bacci, M. Maestripieri.  Measurers
    P. Bacci, L. Tesi, G. Fagioli.  0.60-m F4 Reflector + CCD.
204 Schiaparelli Observatory.  Observer L. Buzzi.  0.84-m f/3.5 reflector +
    CMO.
595 Farra d'Isonzo.  Observer E. Pettarin.  0.61-m f/4.5 reflector + CCD.
807 Cerro Tololo Observatory, La Serena.  Observers T. Linder, R. Holmes.
    0.61-m f/6.8 Ritchey-Chretien + CCD.
G02 KYSUCE Observatory, Kysucke Nove Mesto.  Observer M. Urbanik.  0.40-m
    f/6.8 Corrected Dall-Kirkham + CCD.
J57 Centro Astronomico Alto Turia, Valencia.  Observer A. Fornas.  Measurers
    A. Fornas, G. Fornas, E. Arce, V. Mas.  0.43-m f/6.8 Reflector CDK + CMO.
J95 Great Shefford.  Observer P. Birtwhistle.  0.41-m f/6.3 Schmidt-Cassegrain
    + CCD.
L18 QOS Observatory, Zalistsi.  Observer Y. V. Tanasiychuk.  Measurer A. M.
    Kozhukhov.  0.50-m f/3.8 reflector + CCD.
L34 Galhassin Robotic Telescope, Isnello.  Observer A. Nastasi.  0.40-m f/3.8
    400mm Reflector + CMO.
M45 Starhopper Observatory, Sfantu Gheorghe.  Observer F. Ursache.  0.41-m
    f/7.5 reflector + CMO.
Q06 Tarui Observatory, Tarui.  Observer H. Watanabe.  0.35-m f/1.9 Schmidt-
    Cassegrain + CMO.
T08 ATLAS-MLO, Mauna Loa.  Observers L. Denneau, R. Siverd, J. Tonry, H.
    Weiland.  Measurers L. Denneau, N. Erasmus, A. Fitzsimmons, J. Robinson,
    R. Siverd, J. Tonry, H. Weiland.  0.5-m Reflector + CCD.
Orbital elements:
2024 OE                                                  Earth MOID = 0.0009 AU
Epoch 2024 Oct. 17.0 TT = JDT 2460600.5                 MPC                     
M  21.63022              (2000.0)            P               Q                  
n   0.30245166     Peri.  188.16408     +0.70578437     +0.69528431             
a   2.1980222      Node   126.86240     -0.64000281     +0.70799312             
e   0.5405016      Incl.    9.77406     -0.30375124     +0.12379608             
P   3.26           H   23.87          G   0.15           U   7                  
Residuals in seconds of arc
240727 T08  0.6-  0.1+    240727 L18  0.8-  1.0+    240727 204  0.2-  0.2+
240727 T08  0.5-  0.3-    240727 L18  0.7-  0.1+    240727 807  0.1-  0.0
240727 T08  0.2+  0.2+    240727 L34  0.5+  0.3+    240727 807  0.2+  0.1+
240727 T08  0.3+  0.1+    240727 L18  0.5+  0.7-    240727 807  0.1-  0.0
240727 Q06  0.7+  0.6+    240727 J57  0.3+  0.2-    240727 807  0.0   0.2+
240727 Q06  0.3-  0.5-    240727 L34  0.5-  0.3+    240728 G02  0.6-  0.1-
240727 Q06  0.3+  0.6+    240727 J57  0.3+  0.2-    240728 104  0.1+  0.1-
240727 M45  0.1-  0.3-    240727 J57  0.1-  0.3-    240728 G02 (0.8+  1.4+)
240727 M45  0.2-  0.1-    240727 J95  0.1-  0.1-    240728 104  0.1+  0.1+
240727 M45  0.0   0.1-    240727 J95  0.2-  0.0     240728 G02  0.3+  0.0
240727 595  0.1-  0.5-    240727 J95  0.0   0.1-    240728 104  0.0   0.1+
240727 595  0.2+  0.3-    240727 204  0.2+  0.3+
240727 595  0.1-  0.1-    240727 204  0.1+  0.0
Ephemeris:
2024 OE                  a,e,i = 2.20, 0.54, 10                  q = 1.0100
Date    TT    R. A. (2000) Decl.     Delta      r    Elong.  Phase     V
2024 06 28    15 48 45.1 +20 03 14   0.1799  1.1218   121.8    50.4    22.3
...
2024 07 13    15 34 26.1 +19 25 02   0.1041  1.0554   109.2    65.4    21.4
...
2024 07 21    15 22 57.2 +16 41 19   0.06271 1.0310   102.1    74.5    20.5
...
2024 07 27    14 59 11.1 +09 22 31   0.03160 1.0186    94.7    83.6    19.3
2024 07 28    14 50 16.6 +06 27 39   0.02658 1.0170    92.7    85.8    19.0
2024 07 29    14 37 28.4 +02 11 39   0.02170 1.0156    90.2    88.6    18.7
...
2024 08 04    06 11 21.9 -47 46 06   0.01632 1.0105    74.8   104.3    18.8
...
2024 08 12    04 17 00.9 -30 48 58   0.05646 1.0124    87.4    89.4    20.8
...
2024 08 27    03 57 13.1 -26 19 45   0.1328  1.0421   100.2    72.6    22.1
A. U. Tomatic                (C) Copyright 2024 MPC           M.P.E.C. 2024-O71
    
    
More information about the Iaude
mailing list